Location: Firdgum
(53.2488°N, 5.5615°E)
Time: 21:46:54
(UTC+00:00)

Cosmos 1602 - Pass Details

Date: 08 December 2019
Orbit: 515 x 534 km, 82.5° (Epoch: 17 January)

Event Time Altitude Azimuth Distance (km) Brightness Sun altitude
Rises 05:20:40 0° 181° (S) 2,625 7.4 -19.3°
Reaches altitude 10° 05:22:48 10° 178° (S) 1,742 6.5 -19.0°
Maximum altitude 05:26:34 62° 97° (E) 585 4.2 -18.4°
Drops below altitude 10° 05:30:23 10° 17° (NNE) 1,760 6.4 -17.9°
Sets 05:32:33 0° 14° (NNE) 2,654 7.3 -17.5°
